iso_date,epoch_date,Year,Hour,Min,DOY,POS_DOY,Lat,Lon,BP,Ts,Ta,has_bp,has_ts,has_ta,BuoyID,Buoy_Type,Buoy_Owner,Logistics,Hemisphere
2018-02-27T21:08:38Z,1519765718,2018,21,8,58.881,58.881,71.7596,-141.5166,992.9,-5.5,-999.0,yes,yes,no,300234062952220,ICEB,USIABP,Healy,North
2018-02-27T22:00:28Z,1519768829,2018,22,0,58.917,58.917,71.759,-141.521,993.9,-15.9,-999.0,yes,yes,no,300234062952220,ICEB,USIABP,Healy,North
2018-02-27T22:59:31Z,1519772371,2018,23,0,58.958,58.958,71.7582,-141.5258,995.2,-18.6,-999.0,yes,yes,no,300234062952220,ICEB,USIABP,Healy,North
2018-02-28T00:00:00Z,1519776000,2018,0,0,59.0,59.0,71.7574,-141.53,996.5,-19.8,-999.0,yes,yes,no,300234062952220,ICEB,USIABP,Healy,North
2018-02-28T01:00:28Z,1519779629,2018,1,0,59.042,59.042,71.7564,-141.5326,997.9,-21.1,-999.0,yes,yes,no,300234062952220,ICEB,USIABP,Healy,North
2018-02-28T01:59:31Z,1519783171,2018,2,0,59.083,59.083,71.7556,-141.5328,999.2,-21.9,-999.0,yes,yes,no,300234062952220,ICEB,USIABP,Healy,North
2018-02-28T03:00:00Z,1519786800,2018,3,0,59.125,59.125,71.7548,-141.5312,1001.3,-22.7,-999.0,yes,yes,no,300234062952220,ICEB,USIABP,Healy,North
2018-02-28T04:00:28Z,1519790429,2018,4,0,59.167,59.167,71.7538,-141.528,1003.1,-23.1,-999.0,yes,yes,no,300234062952220,ICEB,USIABP,Healy,North
2018-02-28T04:59:31Z,1519793971,2018,5,0,59.208,59.208,71.7532,-141.5232,1005.2,-23.4,-999.0,yes,yes,no,300234062952220,ICEB,USIABP,Healy,North
2018-02-28T06:00:00Z,1519797600,2018,6,0,59.25,59.25,71.7524,-141.5164,1006.8,-23.8,-999.0,yes,yes,no,300234062952220,ICEB,USIABP,Healy,North
2018-02-28T07:00:28Z,1519801229,2018,7,0,59.292,59.292,71.752,-141.5086,1008.5,-24.1,-999.0,yes,yes,no,300234062952220,ICEB,USIABP,Healy,North
2018-02-28T07:59:31Z,1519804771,2018,8,0,59.333,59.333,71.7516,-141.5008,1010.1,-24.3,-999.0,yes,yes,no,300234062952220,ICEB,USIABP,Healy,North
2018-02-28T09:00:00Z,1519808400,2018,9,0,59.375,59.375,71.7514,-141.4936,1011.6,-24.5,-999.0,yes,yes,no,300234062952220,ICEB,USIABP,Healy,North
2018-02-28T10:00:28Z,1519812029,2018,10,0,59.417,59.417,71.7512,-141.487,1013.5,-24.6,-999.0,yes,yes,no,300234062952220,ICEB,USIABP,Healy,North
2018-02-28T10:59:31Z,1519815571,2018,11,0,59.458,59.458,71.751,-141.4818,1014.8,-24.4,-999.0,yes,yes,no,300234062952220,ICEB,USIABP,Healy,North
2018-02-28T12:00:00Z,1519819200,2018,12,0,59.5,59.5,71.7508,-141.4778,1016.1,-24.4,-999.0,yes,yes,no,300234062952220,ICEB,USIABP,Healy,North
2018-02-28T13:00:28Z,1519822829,2018,13,0,59.542,59.542,71.7508,-141.476,1017.6,-24.3,-999.0,yes,yes,no,300234062952220,ICEB,USIABP,Healy,North
2018-02-28T13:59:31Z,1519826371,2018,14,0,59.583,59.583,71.7508,-141.4756,1018.9,-24.2,-999.0,yes,yes,no,300234062952220,ICEB,USIABP,Healy,North
2018-02-28T15:00:00Z,1519830000,2018,15,0,59.625,59.625,71.7508,-141.4738,1020.2,-24.3,-999.0,yes,yes,no,300234062952220,ICEB,USIABP,Healy,North
2018-02-28T16:00:28Z,1519833629,2018,16,0,59.667,59.667,71.7508,-141.4734,1021.0,-24.2,-999.0,yes,yes,no,300234062952220,ICEB,USIABP,Healy,North
2018-02-28T16:59:31Z,1519837171,2018,17,0,59.708,59.708,71.7508,-141.4732,1022.1,-24.0,-999.0,yes,yes,no,300234062952220,ICEB,USIABP,Healy,North
2018-02-28T18:00:00Z,1519840800,2018,18,0,59.75,59.75,71.7508,-141.4732,1023.2,-24.1,-999.0,yes,yes,no,300234062952220,ICEB,USIABP,Healy,North
2018-02-28T19:00:28Z,1519844429,2018,19,0,59.792,59.792,71.7508,-141.4732,1024.6,-24.4,-999.0,yes,yes,no,300234062952220,ICEB,USIABP,Healy,North
2018-02-28T19:59:31Z,1519847971,2018,20,0,59.833,59.833,71.7508,-141.4732,1025.8,-24.5,-999.0,yes,yes,no,300234062952220,ICEB,USIABP,Healy,North
2018-02-28T21:00:00Z,1519851600,2018,21,0,59.875,59.875,71.7508,-141.4732,1026.7,-24.7,-999.0,yes,yes,no,300234062952220,ICEB,USIABP,Healy,North
2018-02-28T22:00:28Z,1519855229,2018,22,0,59.917,59.917,71.7508,-141.473,1027.9,-24.9,-999.0,yes,yes,no,300234062952220,ICEB,USIABP,Healy,North
2018-02-28T22:59:31Z,1519858771,2018,23,0,59.958,59.958,71.7508,-141.473,1028.6,-24.6,-999.0,yes,yes,no,300234062952220,ICEB,USIABP,Healy,North
2018-03-01T00:00:00Z,1519862400,2018,0,0,60.0,60.0,71.7508,-141.473,1029.8,-24.7,-999.0,yes,yes,no,300234062952220,ICEB,USIABP,Healy,North
2018-03-01T01:00:28Z,1519866029,2018,1,0,60.042,60.042,71.7508,-141.473,1030.8,-24.8,-999.0,yes,yes,no,300234062952220,ICEB,USIABP,Healy,North
2018-03-01T01:59:31Z,1519869571,2018,2,0,60.083,60.083,71.7508,-141.473,1031.9,-25.1,-999.0,yes,yes,no,300234062952220,ICEB,USIABP,Healy,North
2018-03-01T03:00:00Z,1519873200,2018,3,0,60.125,60.125,71.7508,-141.473,1033.1,-25.1,-999.0,yes,yes,no,300234062952220,ICEB,USIABP,Healy,North
2018-03-01T04:00:28Z,1519876829,2018,4,0,60.167,60.167,71.7508,-141.473,1034.3,-25.6,-999.0,yes,yes,no,300234062952220,ICEB,USIABP,Healy,North
2018-03-01T04:59:31Z,1519880371,2018,5,0,60.208,60.208,71.7508,-141.473,1035.1,-25.9,-999.0,yes,yes,no,300234062952220,ICEB,USIABP,Healy,North
2018-03-01T06:00:00Z,1519884000,2018,6,0,60.25,60.25,71.7508,-141.473,1035.9,-25.6,-999.0,yes,yes,no,300234062952220,ICEB,USIABP,Healy,North
2018-03-01T07:00:28Z,1519887629,2018,7,0,60.292,60.292,71.7506,-141.473,1036.9,-25.8,-999.0,yes,yes,no,300234062952220,ICEB,USIABP,Healy,North
2018-03-01T07:59:31Z,1519891171,2018,8,0,60.333,60.333,71.7506,-141.473,1038.0,-25.9,-999.0,yes,yes,no,300234062952220,ICEB,USIABP,Healy,North
2018-03-01T09:00:00Z,1519894800,2018,9,0,60.375,60.375,71.7506,-141.473,1038.5,-26.1,-999.0,yes,yes,no,300234062952220,ICEB,USIABP,Healy,North
2018-03-01T10:00:28Z,1519898429,2018,10,0,60.417,60.417,71.7506,-141.473,1039.7,-26.2,-999.0,yes,yes,no,300234062952220,ICEB,USIABP,Healy,North
2018-03-01T10:59:31Z,1519901971,2018,11,0,60.458,60.458,71.7506,-141.473,1040.2,-26.4,-999.0,yes,yes,no,300234062952220,ICEB,USIABP,Healy,North
2018-03-01T12:00:00Z,1519905600,2018,12,0,60.5,60.5,71.7506,-141.473,1041.0,-26.5,-999.0,yes,yes,no,300234062952220,ICEB,USIABP,Healy,North
2018-03-01T13:00:28Z,1519909229,2018,13,0,60.542,60.542,71.7506,-141.473,1041.6,-26.6,-999.0,yes,yes,no,300234062952220,ICEB,USIABP,Healy,North
2018-03-01T13:59:31Z,1519912771,2018,14,0,60.583,60.583,71.7506,-141.473,1042.4,-26.7,-999.0,yes,yes,no,300234062952220,ICEB,USIABP,Healy,North
2018-03-01T15:00:00Z,1519916400,2018,15,0,60.625,60.625,71.7506,-141.473,1042.7,-26.8,-999.0,yes,yes,no,300234062952220,ICEB,USIABP,Healy,North
2018-03-01T16:00:28Z,1519920029,2018,16,0,60.667,60.667,71.7506,-141.473,1043.0,-27.0,-999.0,yes,yes,no,300234062952220,ICEB,USIABP,Healy,North
2018-03-01T16:59:31Z,1519923571,2018,17,0,60.708,60.708,71.7506,-141.473,1042.6,-27.1,-999.0,yes,yes,no,300234062952220,ICEB,USIABP,Healy,North
2018-03-01T18:00:00Z,1519927200,2018,18,0,60.75,60.75,71.7506,-141.4732,1042.8,-27.1,-999.0,yes,yes,no,300234062952220,ICEB,USIABP,Healy,North
2018-03-01T19:00:28Z,1519930829,2018,19,0,60.792,60.792,71.7506,-141.4732,1042.7,-27.2,-999.0,yes,yes,no,300234062952220,ICEB,USIABP,Healy,North
2018-03-01T19:59:31Z,1519934371,2018,20,0,60.833,60.833,71.7506,-141.4732,1043.2,-27.1,-999.0,yes,yes,no,300234062952220,ICEB,USIABP,Healy,North
2018-03-01T21:00:00Z,1519938000,2018,21,0,60.875,60.875,71.7506,-141.4732,1043.4,-27.0,-999.0,yes,yes,no,300234062952220,ICEB,USIABP,Healy,North
2018-03-01T22:00:28Z,1519941629,2018,22,0,60.917,60.917,71.7506,-141.4732,1042.8,-26.8,-999.0,yes,yes,no,300234062952220,ICEB,USIABP,Healy,North
2018-03-01T22:59:31Z,1519945171,2018,23,0,60.958,60.958,71.7506,-141.4736,1042.5,-26.7,-999.0,yes,yes,no,300234062952220,ICEB,USIABP,Healy,North
2018-03-02T00:00:00Z,1519948800,2018,0,0,61.0,61.0,71.7508,-141.4764,1042.4,-26.7,-999.0,yes,yes,no,300234062952220,ICEB,USIABP,Healy,North
2018-03-02T01:00:28Z,1519952429,2018,1,0,61.042,61.042,71.7506,-141.4818,1041.6,-26.7,-999.0,yes,yes,no,300234062952220,ICEB,USIABP,Healy,North
2018-03-02T01:59:31Z,1519955971,2018,2,0,61.083,61.083,71.7506,-141.4888,1041.7,-26.8,-999.0,yes,yes,no,300234062952220,ICEB,USIABP,Healy,North
2018-03-02T03:00:00Z,1519959600,2018,3,0,61.125,61.125,71.7508,-141.4974,1041.3,-27.0,-999.0,yes,yes,no,300234062952220,ICEB,USIABP,Healy,North
2018-03-02T04:00:28Z,1519963229,2018,4,0,61.167,61.167,71.7514,-141.507,1041.3,-27.3,-999.0,yes,yes,no,300234062952220,ICEB,USIABP,Healy,North
2018-03-02T04:59:31Z,1519966771,2018,5,0,61.208,61.208,71.7518,-141.5172,1040.8,-27.4,-999.0,yes,yes,no,300234062952220,ICEB,USIABP,Healy,North
2018-03-02T06:00:00Z,1519970400,2018,6,0,61.25,61.25,71.7524,-141.5286,1040.3,-27.6,-999.0,yes,yes,no,300234062952220,ICEB,USIABP,Healy,North
2018-03-02T07:00:28Z,1519974029,2018,7,0,61.292,61.292,71.753,-141.5412,1039.7,-27.5,-999.0,yes,yes,no,300234062952220,ICEB,USIABP,Healy,North
2018-03-02T07:59:31Z,1519977571,2018,8,0,61.333,61.333,71.7536,-141.5548,1039.0,-27.5,-999.0,yes,yes,no,300234062952220,ICEB,USIABP,Healy,North
2018-03-02T09:00:00Z,1519981200,2018,9,0,61.375,61.375,71.7546,-141.5694,1038.7,-27.4,-999.0,yes,yes,no,300234062952220,ICEB,USIABP,Healy,North
2018-03-02T10:00:28Z,1519984829,2018,10,0,61.417,61.417,71.7556,-141.5842,1038.5,-27.3,-999.0,yes,yes,no,300234062952220,ICEB,USIABP,Healy,North
2018-03-02T10:59:31Z,1519988371,2018,11,0,61.458,61.458,71.7568,-141.6,1038.0,-27.3,-999.0,yes,yes,no,300234062952220,ICEB,USIABP,Healy,North
2018-03-02T12:00:00Z,1519992000,2018,12,0,61.5,61.5,71.7584,-141.6164,1037.1,-27.3,-999.0,yes,yes,no,300234062952220,ICEB,USIABP,Healy,North
2018-03-02T13:00:28Z,1519995629,2018,13,0,61.542,61.542,71.7602,-141.6342,1036.1,-27.2,-999.0,yes,yes,no,300234062952220,ICEB,USIABP,Healy,North
2018-03-02T13:59:31Z,1519999171,2018,14,0,61.583,61.583,71.762,-141.6524,1035.4,-27.1,-999.0,yes,yes,no,300234062952220,ICEB,USIABP,Healy,North
2018-03-02T15:00:00Z,1520002800,2018,15,0,61.625,61.625,71.7642,-141.6714,1034.9,-27.0,-999.0,yes,yes,no,300234062952220,ICEB,USIABP,Healy,North
2018-03-03T00:00:00Z,1520035200,2018,0,0,62.0,62.0,71.7942,-141.872,1027.8,-24.9,-999.0,yes,yes,no,300234062952220,ICEB,USIABP,Healy,North
2018-03-03T01:00:28Z,1520038829,2018,1,0,62.042,62.042,71.7982,-141.8946,1027.3,-24.8,-999.0,yes,yes,no,300234062952220,ICEB,USIABP,Healy,North
2018-03-03T01:59:31Z,1520042371,2018,2,0,62.083,62.083,71.8024,-141.917,1026.9,-24.5,-999.0,yes,yes,no,300234062952220,ICEB,USIABP,Healy,North
2018-03-03T03:00:00Z,1520046000,2018,3,0,62.125,62.125,71.8072,-141.9384,1027.1,-24.5,-999.0,yes,yes,no,300234062952220,ICEB,USIABP,Healy,North
2018-03-03T04:00:28Z,1520049629,2018,4,0,62.167,62.167,71.812,-141.9592,1026.1,-24.1,-999.0,yes,yes,no,300234062952220,ICEB,USIABP,Healy,North
2018-03-03T04:59:31Z,1520053171,2018,5,0,62.208,62.208,71.8166,-141.979,1025.7,-23.9,-999.0,yes,yes,no,300234062952220,ICEB,USIABP,Healy,North
2018-03-03T06:00:00Z,1520056800,2018,6,0,62.25,62.25,71.8214,-141.9978,1025.1,-23.7,-999.0,yes,yes,no,300234062952220,ICEB,USIABP,Healy,North
2018-03-03T07:00:28Z,1520060429,2018,7,0,62.292,62.292,71.826,-142.016,1024.6,-23.5,-999.0,yes,yes,no,300234062952220,ICEB,USIABP,Healy,North
2018-03-03T07:59:31Z,1520063971,2018,8,0,62.333,62.333,71.8304,-142.0332,1024.7,-23.3,-999.0,yes,yes,no,300234062952220,ICEB,USIABP,Healy,North
2018-03-03T09:00:00Z,1520067600,2018,9,0,62.375,62.375,71.8346,-142.0498,1024.4,-23.2,-999.0,yes,yes,no,300234062952220,ICEB,USIABP,Healy,North
2018-03-03T10:00:28Z,1520071229,2018,10,0,62.417,62.417,71.8386,-142.0664,1023.7,-23.0,-999.0,yes,yes,no,300234062952220,ICEB,USIABP,Healy,North
2018-03-03T10:59:31Z,1520074771,2018,11,0,62.458,62.458,71.8426,-142.0824,1023.7,-22.9,-999.0,yes,yes,no,300234062952220,ICEB,USIABP,Healy,North
2018-03-03T12:00:00Z,1520078400,2018,12,0,62.5,62.5,71.8466,-142.098,1023.2,-22.7,-999.0,yes,yes,no,300234062952220,ICEB,USIABP,Healy,North
2018-03-03T13:00:28Z,1520082029,2018,13,0,62.542,62.542,71.8506,-142.1128,1023.2,-22.5,-999.0,yes,yes,no,300234062952220,ICEB,USIABP,Healy,North
2018-03-03T13:59:31Z,1520085571,2018,14,0,62.583,62.583,71.8546,-142.1262,1022.9,-22.4,-999.0,yes,yes,no,300234062952220,ICEB,USIABP,Healy,North
2018-03-03T15:00:00Z,1520089200,2018,15,0,62.625,62.625,71.8584,-142.1394,1022.6,-22.2,-999.0,yes,yes,no,300234062952220,ICEB,USIABP,Healy,North
2018-03-03T16:00:28Z,1520092829,2018,16,0,62.667,62.667,71.8618,-142.1518,1022.2,-22.0,-999.0,yes,yes,no,300234062952220,ICEB,USIABP,Healy,North
2018-03-03T16:59:31Z,1520096371,2018,17,0,62.708,62.708,71.8652,-142.164,1022.0,-21.9,-999.0,yes,yes,no,300234062952220,ICEB,USIABP,Healy,North
2018-03-03T18:00:00Z,1520100000,2018,18,0,62.75,62.75,71.8686,-142.1756,1021.6,-21.6,-999.0,yes,yes,no,300234062952220,ICEB,USIABP,Healy,North
2018-03-03T19:00:28Z,1520103629,2018,19,0,62.792,62.792,71.8716,-142.1866,1021.5,-21.5,-999.0,yes,yes,no,300234062952220,ICEB,USIABP,Healy,North
2018-03-03T19:59:31Z,1520107171,2018,20,0,62.833,62.833,71.8746,-142.197,1021.3,-21.3,-999.0,yes,yes,no,300234062952220,ICEB,USIABP,Healy,North
2018-03-03T21:00:00Z,1520110800,2018,21,0,62.875,62.875,71.8774,-142.2066,1021.2,-21.1,-999.0,yes,yes,no,300234062952220,ICEB,USIABP,Healy,North
2018-03-03T22:00:28Z,1520114429,2018,22,0,62.917,62.917,71.88,-142.2158,1021.1,-20.9,-999.0,yes,yes,no,300234062952220,ICEB,USIABP,Healy,North
2018-03-03T22:59:31Z,1520117971,2018,23,0,62.958,62.958,71.8824,-142.2256,1020.8,-20.7,-999.0,yes,yes,no,300234062952220,ICEB,USIABP,Healy,North
2018-03-04T00:00:00Z,1520121600,2018,0,0,63.0,63.0,71.8846,-142.2352,1020.5,-20.5,-999.0,yes,yes,no,300234062952220,ICEB,USIABP,Healy,North
2018-03-04T01:00:28Z,1520125229,2018,1,0,63.042,63.042,71.8866,-142.2442,1020.9,-20.3,-999.0,yes,yes,no,300234062952220,ICEB,USIABP,Healy,North
2018-03-04T01:59:31Z,1520128771,2018,2,0,63.083,63.083,71.8882,-142.2522,1021.1,-20.1,-999.0,yes,yes,no,300234062952220,ICEB,USIABP,Healy,North
2018-03-04T03:00:00Z,1520132400,2018,3,0,63.125,63.125,71.8894,-142.26,1021.4,-20.0,-999.0,yes,yes,no,300234062952220,ICEB,USIABP,Healy,North
2018-03-04T04:00:28Z,1520136029,2018,4,0,63.167,63.167,71.8908,-142.2676,1021.7,-19.9,-999.0,yes,yes,no,300234062952220,ICEB,USIABP,Healy,North
2018-03-04T04:59:31Z,1520139571,2018,5,0,63.208,63.208,71.892,-142.275,1021.2,-19.7,-999.0,yes,yes,no,300234062952220,ICEB,USIABP,Healy,North
2018-03-04T06:00:00Z,1520143200,2018,6,0,63.25,63.25,71.8928,-142.2816,1021.8,-19.6,-999.0,yes,yes,no,300234062952220,ICEB,USIABP,Healy,North
2018-03-04T07:00:28Z,1520146829,2018,7,0,63.292,63.292,71.8934,-142.2874,1021.9,-19.6,-999.0,yes,yes,no,300234062952220,ICEB,USIABP,Healy,North
2018-03-04T07:59:31Z,1520150371,2018,8,0,63.333,63.333,71.8946,-142.2932,1022.0,-19.5,-999.0,yes,yes,no,300234062952220,ICEB,USIABP,Healy,North
2018-03-04T09:00:00Z,1520154000,2018,9,0,63.375,63.375,71.8964,-142.2982,1022.1,-19.4,-999.0,yes,yes,no,300234062952220,ICEB,USIABP,Healy,North
2018-03-04T10:00:28Z,1520157629,2018,10,0,63.417,63.417,71.8986,-142.302,1022.0,-19.3,-999.0,yes,yes,no,300234062952220,ICEB,USIABP,Healy,North
2018-03-04T10:59:31Z,1520161171,2018,11,0,63.458,63.458,71.9006,-142.3052,1021.8,-19.2,-999.0,yes,yes,no,300234062952220,ICEB,USIABP,Healy,North
2018-03-04T12:00:00Z,1520164800,2018,12,0,63.5,63.5,71.9032,-142.3066,1021.7,-19.1,-999.0,yes,yes,no,300234062952220,ICEB,USIABP,Healy,North
2018-03-04T13:00:28Z,1520168429,2018,13,0,63.542,63.542,71.9054,-142.3058,1021.3,-19.0,-999.0,yes,yes,no,300234062952220,ICEB,USIABP,Healy,North
2018-03-04T13:59:31Z,1520171971,2018,14,0,63.583,63.583,71.9072,-142.3032,1021.4,-18.8,-999.0,yes,yes,no,300234062952220,ICEB,USIABP,Healy,North
2018-03-04T15:00:00Z,1520175600,2018,15,0,63.625,63.625,71.9086,-142.2998,1021.2,-18.7,-999.0,yes,yes,no,300234062952220,ICEB,USIABP,Healy,North
2018-03-04T16:00:28Z,1520179229,2018,16,0,63.667,63.667,71.9092,-142.2952,1021.4,-18.4,-999.0,yes,yes,no,300234062952220,ICEB,USIABP,Healy,North
2018-03-04T16:59:31Z,1520182771,2018,17,0,63.708,63.708,71.9088,-142.291,1021.4,-18.0,-999.0,yes,yes,no,300234062952220,ICEB,USIABP,Healy,North
2018-03-04T18:00:00Z,1520186400,2018,18,0,63.75,63.75,71.908,-142.2862,1021.7,-17.7,-999.0,yes,yes,no,300234062952220,ICEB,USIABP,Healy,North
2018-03-04T19:00:28Z,1520190029,2018,19,0,63.792,63.792,71.907,-142.2824,1022.1,-17.5,-999.0,yes,yes,no,300234062952220,ICEB,USIABP,Healy,North
2018-03-04T19:59:31Z,1520193571,2018,20,0,63.833,63.833,71.9056,-142.2806,1022.4,-17.2,-999.0,yes,yes,no,300234062952220,ICEB,USIABP,Healy,North
2018-03-04T21:00:00Z,1520197200,2018,21,0,63.875,63.875,71.904,-142.2812,1023.0,-17.1,-999.0,yes,yes,no,300234062952220,ICEB,USIABP,Healy,North
2018-03-04T22:00:28Z,1520200829,2018,22,0,63.917,63.917,71.9024,-142.2842,1023.5,-16.9,-999.0,yes,yes,no,300234062952220,ICEB,USIABP,Healy,North
2018-03-04T22:59:31Z,1520204371,2018,23,0,63.958,63.958,71.9014,-142.2878,1024.1,-16.7,-999.0,yes,yes,no,300234062952220,ICEB,USIABP,Healy,North
2018-03-05T00:00:00Z,1520208000,2018,0,0,64.0,64.0,71.9004,-142.2916,1024.4,-16.6,-999.0,yes,yes,no,300234062952220,ICEB,USIABP,Healy,North
2018-03-05T01:00:28Z,1520211629,2018,1,0,64.042,64.042,71.8996,-142.2954,1024.7,-16.4,-999.0,yes,yes,no,300234062952220,ICEB,USIABP,Healy,North
2018-03-05T01:59:31Z,1520215171,2018,2,0,64.083,64.083,71.8994,-142.301,1024.8,-16.2,-999.0,yes,yes,no,300234062952220,ICEB,USIABP,Healy,North
2018-03-05T03:00:00Z,1520218800,2018,3,0,64.125,64.125,71.8998,-142.3082,1025.0,-16.1,-999.0,yes,yes,no,300234062952220,ICEB,USIABP,Healy,North
2018-03-05T04:00:28Z,1520222429,2018,4,0,64.167,64.167,71.9006,-142.3156,1025.0,-16.1,-999.0,yes,yes,no,300234062952220,ICEB,USIABP,Healy,North
2018-03-05T04:59:31Z,1520225971,2018,5,0,64.208,64.208,71.9018,-142.3226,1024.9,-16.2,-999.0,yes,yes,no,300234062952220,ICEB,USIABP,Healy,North
2018-03-05T06:00:00Z,1520229600,2018,6,0,64.25,64.25,71.903,-142.3304,1024.8,-15.9,-999.0,yes,yes,no,300234062952220,ICEB,USIABP,Healy,North
2018-03-05T07:00:28Z,1520233229,2018,7,0,64.292,64.292,71.9046,-142.3376,1024.7,-16.2,-999.0,yes,yes,no,300234062952220,ICEB,USIABP,Healy,North
2018-03-05T07:59:31Z,1520236771,2018,8,0,64.333,64.333,71.9062,-142.3442,1024.5,-16.1,-999.0,yes,yes,no,300234062952220,ICEB,USIABP,Healy,North
2018-03-05T09:00:00Z,1520240400,2018,9,0,64.375,64.375,71.9076,-142.3504,1024.3,-15.9,-999.0,yes,yes,no,300234062952220,ICEB,USIABP,Healy,North
2018-03-05T10:00:28Z,1520244029,2018,10,0,64.417,64.417,71.9092,-142.3566,1023.8,-16.0,-999.0,yes,yes,no,300234062952220,ICEB,USIABP,Healy,North
2018-03-05T10:59:31Z,1520247571,2018,11,0,64.458,64.458,71.9108,-142.3634,1023.6,-15.8,-999.0,yes,yes,no,300234062952220,ICEB,USIABP,Healy,North
2018-03-05T12:00:00Z,1520251200,2018,12,0,64.5,64.5,71.9126,-142.3706,1023.3,-15.8,-999.0,yes,yes,no,300234062952220,ICEB,USIABP,Healy,North
2018-03-05T13:00:28Z,1520254829,2018,13,0,64.542,64.542,71.9146,-142.3784,1022.9,-15.6,-999.0,yes,yes,no,300234062952220,ICEB,USIABP,Healy,North
2018-03-05T13:59:31Z,1520258371,2018,14,0,64.583,64.583,71.9166,-142.387,1022.7,-15.5,-999.0,yes,yes,no,300234062952220,ICEB,USIABP,Healy,North
2018-03-05T15:00:00Z,1520262000,2018,15,0,64.625,64.625,71.9188,-142.396,1022.5,-15.5,-999.0,yes,yes,no,300234062952220,ICEB,USIABP,Healy,North
2018-03-05T16:00:28Z,1520265629,2018,16,0,64.667,64.667,71.9212,-142.4052,1022.2,-15.4,-999.0,yes,yes,no,300234062952220,ICEB,USIABP,Healy,North
2018-03-05T16:59:31Z,1520269171,2018,17,0,64.708,64.708,71.9238,-142.4142,1022.0,-15.4,-999.0,yes,yes,no,300234062952220,ICEB,USIABP,Healy,North
2018-03-05T18:00:00Z,1520272800,2018,18,0,64.75,64.75,71.9262,-142.4228,1021.7,-15.3,-999.0,yes,yes,no,300234062952220,ICEB,USIABP,Healy,North
2018-03-05T19:00:28Z,1520276429,2018,19,0,64.792,64.792,71.9288,-142.4316,1021.7,-15.2,-999.0,yes,yes,no,300234062952220,ICEB,USIABP,Healy,North
2018-03-05T19:59:31Z,1520279971,2018,20,0,64.833,64.833,71.9314,-142.4404,1021.7,-15.4,-999.0,yes,yes,no,300234062952220,ICEB,USIABP,Healy,North
2018-03-05T21:00:00Z,1520283600,2018,21,0,64.875,64.875,71.9338,-142.449,1021.7,-15.1,-999.0,yes,yes,no,300234062952220,ICEB,USIABP,Healy,North
2018-03-05T22:00:28Z,1520287229,2018,22,0,64.917,64.917,71.9364,-142.4578,1021.7,-15.1,-999.0,yes,yes,no,300234062952220,ICEB,USIABP,Healy,North
2018-03-05T22:59:31Z,1520290771,2018,23,0,64.958,64.958,71.939,-142.467,1021.7,-15.0,-999.0,yes,yes,no,300234062952220,ICEB,USIABP,Healy,North
2018-03-06T00:00:00Z,1520294400,2018,0,0,65.0,65.0,71.9416,-142.4762,1021.6,-15.0,-999.0,yes,yes,no,300234062952220,ICEB,USIABP,Healy,North
2018-03-06T01:00:28Z,1520298029,2018,1,0,65.042,65.042,71.9446,-142.4854,1021.6,-15.1,-999.0,yes,yes,no,300234062952220,ICEB,USIABP,Healy,North
2018-03-06T01:59:31Z,1520301571,2018,2,0,65.083,65.083,71.948,-142.4954,1021.5,-15.0,-999.0,yes,yes,no,300234062952220,ICEB,USIABP,Healy,North
2018-03-06T03:00:00Z,1520305200,2018,3,0,65.125,65.125,71.9518,-142.5052,1021.7,-15.1,-999.0,yes,yes,no,300234062952220,ICEB,USIABP,Healy,North
2018-03-06T04:00:28Z,1520308829,2018,4,0,65.167,65.167,71.9562,-142.5146,1021.6,-15.0,-999.0,yes,yes,no,300234062952220,ICEB,USIABP,Healy,North
2018-03-06T04:59:31Z,1520312371,2018,5,0,65.208,65.208,71.9604,-142.5234,1021.7,-14.9,-999.0,yes,yes,no,300234062952220,ICEB,USIABP,Healy,North
2018-03-06T06:00:00Z,1520316000,2018,6,0,65.25,65.25,71.9642,-142.5312,1021.8,-14.8,-999.0,yes,yes,no,300234062952220,ICEB,USIABP,Healy,North
2018-03-06T07:00:28Z,1520319629,2018,7,0,65.292,65.292,71.9678,-142.5392,1021.7,-14.9,-999.0,yes,yes,no,300234062952220,ICEB,USIABP,Healy,North
2018-03-06T07:59:31Z,1520323171,2018,8,0,65.333,65.333,71.9708,-142.5472,1021.7,-14.8,-999.0,yes,yes,no,300234062952220,ICEB,USIABP,Healy,North
2018-03-06T09:00:00Z,1520326800,2018,9,0,65.375,65.375,71.9738,-142.5554,1021.7,-14.8,-999.0,yes,yes,no,300234062952220,ICEB,USIABP,Healy,North
2018-03-06T10:00:28Z,1520330429,2018,10,0,65.417,65.417,71.9762,-142.5636,1021.6,-14.7,-999.0,yes,yes,no,300234062952220,ICEB,USIABP,Healy,North
2018-03-06T10:59:31Z,1520333971,2018,11,0,65.458,65.458,71.9788,-142.5726,1021.4,-14.8,-999.0,yes,yes,no,300234062952220,ICEB,USIABP,Healy,North
2018-03-06T12:00:00Z,1520337600,2018,12,0,65.5,65.5,71.9814,-142.5832,1021.2,-14.8,-999.0,yes,yes,no,300234062952220,ICEB,USIABP,Healy,North
2018-03-06T13:00:28Z,1520341229,2018,13,0,65.542,65.542,71.9842,-142.5944,1020.9,-14.9,-999.0,yes,yes,no,300234062952220,ICEB,USIABP,Healy,North
2018-03-06T13:59:31Z,1520344771,2018,14,0,65.583,65.583,71.987,-142.6066,1020.8,-14.9,-999.0,yes,yes,no,300234062952220,ICEB,USIABP,Healy,North
2018-03-06T15:00:00Z,1520348400,2018,15,0,65.625,65.625,71.9896,-142.6206,1020.2,-15.0,-999.0,yes,yes,no,300234062952220,ICEB,USIABP,Healy,North
2018-03-06T16:00:28Z,1520352029,2018,16,0,65.667,65.667,71.9922,-142.6362,1019.8,-15.0,-999.0,yes,yes,no,300234062952220,ICEB,USIABP,Healy,North
2018-03-06T16:59:31Z,1520355571,2018,17,0,65.708,65.708,71.9946,-142.6528,1019.4,-15.1,-999.0,yes,yes,no,300234062952220,ICEB,USIABP,Healy,North
2018-03-06T18:00:00Z,1520359200,2018,18,0,65.75,65.75,71.997,-142.6688,1019.1,-15.1,-999.0,yes,yes,no,300234062952220,ICEB,USIABP,Healy,North
2018-03-06T19:00:28Z,1520362829,2018,19,0,65.792,65.792,71.9996,-142.683,1018.7,-15.1,-999.0,yes,yes,no,300234062952220,ICEB,USIABP,Healy,North
2018-03-06T19:59:31Z,1520366371,2018,20,0,65.833,65.833,72.0016,-142.6966,1018.4,-15.2,-999.0,yes,yes,no,300234062952220,ICEB,USIABP,Healy,North
2018-03-06T21:00:00Z,1520370000,2018,21,0,65.875,65.875,72.0032,-142.7088,1017.9,-15.2,-999.0,yes,yes,no,300234062952220,ICEB,USIABP,Healy,North
2018-03-06T22:00:28Z,1520373629,2018,22,0,65.917,65.917,72.0044,-142.72,1017.6,-15.2,-999.0,yes,yes,no,300234062952220,ICEB,USIABP,Healy,North
2018-03-06T22:59:31Z,1520377171,2018,23,0,65.958,65.958,72.0052,-142.7304,1017.3,-15.3,-999.0,yes,yes,no,300234062952220,ICEB,USIABP,Healy,North
2018-03-07T00:00:00Z,1520380800,2018,0,0,66.0,66.0,72.006,-142.74,1017.2,-15.2,-999.0,yes,yes,no,300234062952220,ICEB,USIABP,Healy,North
2018-03-07T01:00:28Z,1520384429,2018,1,0,66.042,66.042,72.0068,-142.7502,1016.9,-15.1,-999.0,yes,yes,no,300234062952220,ICEB,USIABP,Healy,North
2018-03-07T01:59:31Z,1520387971,2018,2,0,66.083,66.083,72.0074,-142.7608,1016.3,-15.1,-999.0,yes,yes,no,300234062952220,ICEB,USIABP,Healy,North